ECHO 2 DEB (METAL OBJ), 743

Orbit data source: Space-Track

ECHO 2 DEB (METAL OBJ), 743 is space debris in LEO originally from a launch on Sat, 25 Jan 1964 UTC launched from the Air Force Western Test Range (AFWTR). Debris objects in space refer to the collection of defunct objects orbiting the Earth. Examples of debris include non-operational satellites, rocket bodies, and fragments generated from explosions, collisions, or faulty payload assembly.

Loading next visibility...
Identifier
743, 1964-004D
Orbit
LEO
Country
Flag of USUS
Related business
Manufacturer
Grummann
Mission
Spacecraft
Bus & Motor
ECHO CANISTER, Unknown motor
Mass
35 kg wet, 35 kg dry
Launch date (UTC)
1964-01-25 (63 years ago)
Launch vehicle
Unknown
Launch site
Air Force Western Test Range (AFWTR)
Object type
Payload
Rocket body
Debris
Shape & HBR
DOME, 0.9 m
Radar Cross Section
Large (>1 m²)

Expand to show TLE details & history
Last TLE update: 5 hours ago

TLE from 5 hours ago
0 ECHO 2 DEB (METAL OBJ)
1 00743U 64004D   26251.59397913  .00000106  00000-0  19547-3 0  9996
2 00743  81.5179  96.9311 0174199 148.3470 268.1801 13.26894678 29184
Epoch: 2026-09-08T14:15Z
TLE epoch observation values (Epoch: 2026-09-08T14:15:19.796Z)
Latitude
53.75891°
Longitude
-92.88084°
Altitude
1,173.709 km
Speed
7.269 km/s
True Right ascension
07h 14m 26s
True Declination
53° 36' 14"
Sunlit
Object was in daylight at epoch
Visualization orbit readout
Latitude
Unknown
Longitude
Unknown
Altitude
Unknown
Speed
Unknown
Apparent Right ascension
Unknown
Apparent Declination
Unknown
Sunlit
N/A
Visualization observer readout
Local Sidereal Time
11:36:41
Azimuth
Unknown
Elevation
Unknown
Doppler factor
Unknown
Orbital elements
Apogee altitude
1,287.012 km
Perigee altitude
1,024.532 km
Semi-major axis
7,533.909 km
Eccentricity
0.01742
Inclination
81.5179°
RAAN
96.9311°
Arg. of periapsis
148.347°
True anomaly
266.18671°
Mean anomaly
268.1801°
Eccentric anomaly
267.18322°
Mean motion
3.31904 °/min
Orbital period
108.47 mins
BSTAR
0.00019547
Loading maneuver chart data...
Computing Atmospheric mass density...
Loading historical data...
Loading historical data...
Loading historical data...
Loading historical data...
Loading historical data...
Loading historical data...
Loading historical data...

Documentation

Showing up to 5 results
|